Time,TemperatureF,DewpointF,PressureIn,WindDirection,WindDirectionDegrees,WindSpeedMPH,WindSpeedGustMPH,Humidity,HourlyPrecipIn,Conditions,Clouds,dailyrainin,SoftwareType,DateUTC
2013-04-05 00:00:00,40.9,24.2,30.00,SSE,148,2.0,8.0,51,0.00,,---,0.00,VWS V13.00,2013-04-05 04:00:00,
2013-04-05 00:05:00,40.6,23.9,30.00,SSE,149,2.0,8.0,51,0.00,,---,0.00,VWS V13.00,2013-04-05 04:05:00,
2013-04-05 00:10:00,40.3,24.1,30.00,South,187,0.0,5.0,52,0.00,,---,0.00,VWS V13.00,2013-04-05 04:10:00,
2013-04-05 00:15:00,40.2,24.0,30.00,SSW,209,3.0,5.0,52,0.00,,---,0.00,VWS V13.00,2013-04-05 04:15:00,
2013-04-05 00:20:00,40.1,24.4,30.00,SSW,209,2.0,5.0,53,0.00,,---,0.00,VWS V13.00,2013-04-05 04:20:00,
2013-04-05 00:25:00,40.0,24.3,30.00,SW,216,1.0,6.0,53,0.00,,---,0.00,VWS V13.00,2013-04-05 04:25:00,
2013-04-05 00:30:00,40.0,24.7,30.00,SW,217,1.0,6.0,54,0.00,,---,0.00,VWS V13.00,2013-04-05 04:30:00,
2013-04-05 00:35:00,39.8,25.0,30.00,SW,218,3.0,6.0,55,0.00,,---,0.00,VWS V13.00,2013-04-05 04:35:00,
2013-04-05 00:40:00,39.7,24.9,30.00,SW,218,0.0,4.0,55,0.00,,---,0.00,VWS V13.00,2013-04-05 04:40:00,
2013-04-05 00:45:00,39.6,24.8,30.00,SW,215,0.0,5.0,55,0.00,,---,0.00,VWS V13.00,2013-04-05 04:45:00,
2013-04-05 00:50:00,39.4,25.9,30.00,SSE,157,0.0,5.0,58,0.00,,---,0.00,VWS V13.00,2013-04-05 04:50:00,
2013-04-05 00:55:00,39.0,25.5,30.00,South,188,1.0,5.0,58,0.00,,---,0.00,VWS V13.00,2013-04-05 04:55:00,
2013-04-05 01:00:00,38.8,24.9,29.99,South,188,0.0,5.0,57,0.00,,---,0.00,VWS V13.00,2013-04-05 05:00:00,
2013-04-05 01:05:00,38.5,25.4,29.99,South,188,1.0,5.0,59,0.00,,---,0.00,VWS V13.00,2013-04-05 05:05:00,
2013-04-05 01:10:00,38.6,25.5,29.99,SW,228,2.0,7.0,59,0.00,,---,0.00,VWS V13.00,2013-04-05 05:10:00,
2013-04-05 01:15:00,39.0,25.9,29.99,SSW,207,2.0,9.0,59,0.00,,---,0.00,VWS V13.00,2013-04-05 05:15:00,
2013-04-05 01:20:00,39.1,26.0,29.99,SW,234,4.0,10.0,59,0.00,,---,0.00,VWS V13.00,2013-04-05 05:20:00,
2013-04-05 01:25:00,39.2,26.1,29.98,SSW,192,1.0,10.0,59,0.00,,---,0.00,VWS V13.00,2013-04-05 05:25:00,
2013-04-05 01:30:00,39.1,26.0,29.99,SSW,211,2.0,10.0,59,0.00,,---,0.00,VWS V13.00,2013-04-05 05:30:00,
2013-04-05 01:35:00,39.0,26.3,29.98,SW,220,5.0,10.0,60,0.00,,---,0.00,VWS V13.00,2013-04-05 05:35:00,
2013-04-05 01:40:00,39.1,26.4,29.98,SW,219,4.0,6.0,60,0.00,,---,0.00,VWS V13.00,2013-04-05 05:40:00,
2013-04-05 01:45:00,39.1,26.4,29.98,SW,217,4.0,7.0,60,0.00,,---,0.00,VWS V13.00,2013-04-05 05:45:00,
2013-04-05 01:50:00,39.1,26.8,29.97,SW,232,2.0,10.0,61,0.00,,---,0.00,VWS V13.00,2013-04-05 05:50:00,
2013-04-05 01:55:00,39.1,26.8,29.97,SW,225,3.0,10.0,61,0.00,,---,0.00,VWS V13.00,2013-04-05 05:55:00,
2013-04-05 02:00:00,39.2,26.9,29.97,SW,225,6.0,12.0,61,0.00,,---,0.00,VWS V13.00,2013-04-05 06:00:00,
2013-04-05 02:05:00,39.0,26.7,29.97,SW,227,5.0,12.0,61,0.00,,---,0.00,VWS V13.00,2013-04-05 06:05:00,
2013-04-05 02:10:00,39.0,26.7,29.96,SW,229,7.0,14.0,61,0.00,,---,0.00,VWS V13.00,2013-04-05 06:10:00,
2013-04-05 02:15:00,38.9,27.0,29.96,SW,228,6.0,14.0,62,0.00,,---,0.00,VWS V13.00,2013-04-05 06:15:00,
2013-04-05 02:20:00,38.9,27.0,29.96,SW,225,12.0,14.0,62,0.00,,---,0.00,VWS V13.00,2013-04-05 06:20:00,
2013-04-05 02:25:00,38.9,27.0,29.96,SW,215,6.0,14.0,62,0.00,,---,0.00,VWS V13.00,2013-04-05 06:25:00,
2013-04-05 02:30:00,38.7,27.2,29.96,SW,219,6.0,14.0,63,0.00,,---,0.00,VWS V13.00,2013-04-05 06:30:00,
2013-04-05 02:35:00,38.6,27.1,29.96,SW,224,7.0,14.0,63,0.00,,---,0.00,VWS V13.00,2013-04-05 06:35:00,
2013-04-05 02:40:00,38.5,27.0,29.96,SW,221,4.0,6.0,63,0.00,,---,0.00,VWS V13.00,2013-04-05 06:40:00,
2013-04-05 02:45:00,38.3,26.8,29.95,SW,217,3.0,6.0,63,0.00,,---,0.00,VWS V13.00,2013-04-05 06:45:00,
2013-04-05 02:50:00,38.2,26.7,29.95,SW,215,2.0,6.0,63,0.00,,---,0.00,VWS V13.00,2013-04-05 06:50:00,
2013-04-05 02:55:00,38.0,26.9,29.95,SW,214,2.0,6.0,64,0.00,,---,0.00,VWS V13.00,2013-04-05 06:55:00,
2013-04-05 03:00:00,38.0,26.9,29.95,SW,214,0.0,6.0,64,0.00,,---,0.00,VWS V13.00,2013-04-05 07:00:00,
2013-04-05 03:05:00,38.0,26.9,29.95,SSW,209,1.0,6.0,64,0.00,,---,0.00,VWS V13.00,2013-04-05 07:05:00,
2013-04-05 03:10:00,38.0,26.9,29.94,SSW,206,0.0,4.0,64,0.00,,---,0.00,VWS V13.00,2013-04-05 07:10:00,
2013-04-05 03:15:00,38.0,26.5,29.94,SSW,203,4.0,4.0,63,0.00,,---,0.00,VWS V13.00,2013-04-05 07:15:00,
2013-04-05 03:20:00,38.0,26.9,29.95,SSW,193,1.0,4.0,64,0.00,,---,0.00,VWS V13.00,2013-04-05 07:20:00,
2013-04-05 03:25:00,38.0,26.9,29.95,South,187,0.0,6.0,64,0.00,,---,0.00,VWS V13.00,2013-04-05 07:25:00,
2013-04-05 03:30:00,37.9,26.8,29.95,South,186,2.0,6.0,64,0.00,,---,0.00,VWS V13.00,2013-04-05 07:30:00,
2013-04-05 03:35:00,37.8,26.7,29.95,South,180,1.0,6.0,64,0.00,,---,0.00,VWS V13.00,2013-04-05 07:35:00,
2013-04-05 03:40:00,37.9,26.8,29.94,South,171,1.0,8.0,64,0.00,,---,0.00,VWS V13.00,2013-04-05 07:40:00,
2013-04-05 03:45:00,37.9,27.2,29.94,South,172,0.0,8.0,65,0.00,,---,0.00,VWS V13.00,2013-04-05 07:45:00,
2013-04-05 03:50:00,37.8,27.1,29.94,South,172,0.0,8.0,65,0.00,,---,0.00,VWS V13.00,2013-04-05 07:50:00,
2013-04-05 03:55:00,37.6,26.9,29.94,South,172,2.0,8.0,65,0.00,,---,0.00,VWS V13.00,2013-04-05 07:55:00,
2013-04-05 04:00:00,37.5,26.8,29.94,South,172,1.0,8.0,65,0.00,,---,0.00,VWS V13.00,2013-04-05 08:00:00,
2013-04-05 04:05:00,37.3,27.0,29.94,SSW,210,6.0,8.0,66,0.00,,---,0.00,VWS V13.00,2013-04-05 08:05:00,
2013-04-05 04:10:00,37.6,27.6,29.93,SW,229,6.0,9.0,67,0.00,,---,0.00,VWS V13.00,2013-04-05 08:10:00,
2013-04-05 04:15:00,37.9,27.9,29.93,SW,220,7.0,10.0,67,0.00,,---,0.00,VWS V13.00,2013-04-05 08:15:00,
2013-04-05 04:20:00,37.9,27.9,29.93,SW,221,5.0,13.0,67,0.00,,---,0.00,VWS V13.00,2013-04-05 08:20:00,
2013-04-05 04:25:00,37.7,28.1,29.93,SW,226,6.0,13.0,68,0.00,,---,0.00,VWS V13.00,2013-04-05 08:25:00,
2013-04-05 04:30:00,37.8,28.2,29.93,SW,228,7.0,13.0,68,0.00,,---,0.00,VWS V13.00,2013-04-05 08:30:00,
2013-04-05 04:35:00,37.7,28.1,29.93,SW,223,6.0,13.0,68,0.00,,---,0.00,VWS V13.00,2013-04-05 08:35:00,
2013-04-05 04:40:00,37.7,28.5,29.93,SW,222,5.0,9.0,69,0.00,,---,0.00,VWS V13.00,2013-04-05 08:40:00,
2013-04-05 04:45:00,37.5,28.6,29.92,SW,223,6.0,13.0,70,0.00,,---,0.00,VWS V13.00,2013-04-05 08:45:00,
2013-04-05 04:50:00,37.5,28.6,29.93,SW,214,5.0,17.0,70,0.00,,---,0.00,VWS V13.00,2013-04-05 08:50:00,
2013-04-05 04:55:00,37.4,28.5,29.93,SW,227,6.0,17.0,70,0.00,,---,0.00,VWS V13.00,2013-04-05 08:55:00,
2013-04-05 05:00:00,37.4,28.9,29.93,WSW,244,11.0,17.0,71,0.00,,---,0.00,VWS V13.00,2013-04-05 09:00:00,
2013-04-05 05:05:00,37.4,28.9,29.93,SW,227,5.0,17.0,71,0.00,,---,0.00,VWS V13.00,2013-04-05 09:05:00,
2013-04-05 05:10:00,37.3,28.8,29.92,SW,234,6.0,11.0,71,0.00,,---,0.00,VWS V13.00,2013-04-05 09:10:00,
2013-04-05 05:15:00,37.2,28.7,29.92,SW,234,5.0,11.0,71,0.00,,---,0.00,VWS V13.00,2013-04-05 09:15:00,
2013-04-05 05:20:00,37.1,28.6,29.92,SW,233,4.0,11.0,71,0.00,,---,0.00,VWS V13.00,2013-04-05 09:20:00,
2013-04-05 05:25:00,37.0,28.8,29.91,SW,226,3.0,11.0,72,0.00,,---,0.00,VWS V13.00,2013-04-05 09:25:00,
2013-04-05 05:30:00,37.0,28.8,29.91,SW,234,8.0,11.0,72,0.00,,---,0.00,VWS V13.00,2013-04-05 09:30:00,
2013-04-05 05:35:00,36.9,28.7,29.91,SSW,213,5.0,11.0,72,0.00,,---,0.00,VWS V13.00,2013-04-05 09:35:00,
2013-04-05 05:41:00,36.9,29.1,29.91,SSW,213,9.0,14.0,73,0.00,,---,0.00,VWS V13.00,2013-04-05 09:41:00,
2013-04-05 05:46:00,36.9,29.1,29.91,SW,227,5.0,14.0,73,0.00,,---,0.00,VWS V13.00,2013-04-05 09:46:00,
2013-04-05 05:51:00,36.8,29.0,29.91,SW,218,4.0,14.0,73,0.00,,---,0.00,VWS V13.00,2013-04-05 09:51:00,
2013-04-05 05:57:00,36.7,28.9,29.91,SW,217,3.0,14.0,73,0.00,,---,0.00,VWS V13.00,2013-04-05 09:57:00,
2013-04-05 06:02:00,36.6,28.8,29.90,SSW,203,6.0,14.0,73,0.00,,---,0.00,VWS V13.00,2013-04-05 10:02:00,
2013-04-05 06:07:00,36.6,29.1,29.90,SW,215,8.0,9.0,74,0.00,,---,0.00,VWS V13.00,2013-04-05 10:07:00,
2013-04-05 06:12:00,36.5,29.0,29.90,SW,236,6.0,10.0,74,0.00,,---,0.00,VWS V13.00,2013-04-05 10:12:00,
2013-04-05 06:17:00,36.5,29.0,29.91,SW,220,2.0,11.0,74,0.00,,---,0.00,VWS V13.00,2013-04-05 10:17:00,
2013-04-05 06:22:00,36.5,29.0,29.91,SSW,209,0.0,11.0,74,0.00,,---,0.00,VWS V13.00,2013-04-05 10:22:00,
2013-04-05 06:27:00,36.4,28.6,29.91,SSW,207,2.0,11.0,73,0.00,,---,0.00,VWS V13.00,2013-04-05 10:27:00,
2013-04-05 06:32:00,36.4,28.6,29.91,SSW,200,0.0,11.0,73,0.00,,---,0.00,VWS V13.00,2013-04-05 10:32:00,
2013-04-05 06:37:00,36.4,28.6,29.91,SSW,211,0.0,1.0,73,0.00,,---,0.00,VWS V13.00,2013-04-05 10:37:00,
2013-04-05 06:42:00,36.5,28.7,29.91,SW,219,2.0,6.0,73,0.00,,---,0.00,VWS V13.00,2013-04-05 10:42:00,
2013-04-05 06:47:00,36.6,28.4,29.91,SW,216,7.0,7.0,72,0.00,,---,0.00,VWS V13.00,2013-04-05 10:47:00,
2013-04-05 06:52:00,36.7,28.5,29.91,SW,225,4.0,7.0,72,0.00,,---,0.00,VWS V13.00,2013-04-05 10:52:00,
2013-04-05 06:57:00,36.9,28.4,29.91,SW,221,9.0,13.0,71,0.00,,---,0.00,VWS V13.00,2013-04-05 10:57:00,
2013-04-05 07:02:00,37.0,28.5,29.91,WSW,238,6.0,13.0,71,0.00,,---,0.00,VWS V13.00,2013-04-05 11:02:00,
2013-04-05 07:07:00,37.1,28.6,29.92,SW,220,7.0,12.0,71,0.00,,---,0.00,VWS V13.00,2013-04-05 11:07:00,
2013-04-05 07:12:00,37.2,28.3,29.91,West,259,6.0,13.0,70,0.00,,---,0.00,VWS V13.00,2013-04-05 11:12:00,
2013-04-05 07:17:00,37.2,28.7,29.91,WSW,250,11.0,14.0,71,0.00,,---,0.00,VWS V13.00,2013-04-05 11:17:00,
2013-04-05 07:22:00,37.2,28.7,29.91,SW,236,5.0,14.0,71,0.00,,---,0.00,VWS V13.00,2013-04-05 11:22:00,
2013-04-05 07:27:00,37.2,28.7,29.92,SSW,210,5.0,14.0,71,0.00,,---,0.00,VWS V13.00,2013-04-05 11:27:00,
2013-04-05 07:32:00,37.2,28.7,29.92,SSW,202,4.0,17.0,71,0.00,,---,0.00,VWS V13.00,2013-04-05 11:32:00,
2013-04-05 07:37:00,37.2,28.7,29.91,SW,229,8.0,11.0,71,0.00,,---,0.00,VWS V13.00,2013-04-05 11:37:00,
2013-04-05 07:42:00,37.2,28.7,29.91,SSW,209,9.0,15.0,71,0.00,,---,0.00,VWS V13.00,2013-04-05 11:42:00,
2013-04-05 07:47:00,37.3,29.1,29.91,WSW,237,4.0,15.0,72,0.00,,---,0.00,VWS V13.00,2013-04-05 11:47:00,
2013-04-05 07:52:00,37.3,29.1,29.91,SW,225,6.0,15.0,72,0.00,,---,0.00,VWS V13.00,2013-04-05 11:52:00,
2013-04-05 07:57:00,37.3,29.1,29.90,SW,227,3.0,15.0,72,0.00,,---,0.00,VWS V13.00,2013-04-05 11:57:00,
2013-04-05 08:02:00,37.4,28.9,29.90,SW,215,4.0,15.0,71,0.00,,---,0.00,VWS V13.00,2013-04-05 12:02:00,
2013-04-05 08:07:00,37.4,28.9,29.91,SW,223,7.0,9.0,71,0.00,,---,0.00,VWS V13.00,2013-04-05 12:07:00,
2013-04-05 08:12:00,37.5,29.0,29.91,SSW,204,6.0,10.0,71,0.00,,---,0.00,VWS V13.00,2013-04-05 12:12:00,
2013-04-05 08:17:00,37.6,29.1,29.90,SW,219,4.0,12.0,71,0.00,,---,0.00,VWS V13.00,2013-04-05 12:17:00,
2013-04-05 08:22:00,37.7,29.2,29.90,SSW,213,3.0,12.0,71,0.00,,---,0.00,VWS V13.00,2013-04-05 12:22:00,
2013-04-05 08:27:00,37.9,29.0,29.90,South,184,3.0,12.0,70,0.00,,---,0.00,VWS V13.00,2013-04-05 12:27:00,
2013-04-05 08:32:00,38.2,29.3,29.90,SSW,207,5.0,12.0,70,0.00,,---,0.00,VWS V13.00,2013-04-05 12:32:00,
2013-04-05 08:37:00,38.5,29.2,29.89,South,175,0.0,4.0,69,0.00,,---,0.00,VWS V13.00,2013-04-05 12:37:00,
2013-04-05 08:42:00,38.9,29.6,29.88,SSW,209,1.0,7.0,69,0.00,,---,0.00,VWS V13.00,2013-04-05 12:42:00,
2013-04-05 08:47:00,39.6,29.9,29.87,SW,221,5.0,11.0,68,0.00,,---,0.00,VWS V13.00,2013-04-05 12:47:00,
2013-04-05 08:52:00,40.3,29.5,29.88,WSW,238,3.0,11.0,65,0.00,,---,0.00,VWS V13.00,2013-04-05 12:52:00,
2013-04-05 08:57:00,40.7,29.1,29.88,SW,217,0.0,11.0,63,0.00,,---,0.00,VWS V13.00,2013-04-05 12:57:00,
2013-04-05 09:02:00,40.9,28.9,29.88,WSW,238,3.0,11.0,62,0.00,,---,0.00,VWS V13.00,2013-04-05 13:02:00,
2013-04-05 09:07:00,41.0,29.0,29.88,SW,220,6.0,6.0,62,0.00,,---,0.00,VWS V13.00,2013-04-05 13:07:00,
2013-04-05 09:12:00,41.1,29.1,29.87,SW,231,1.0,9.0,62,0.00,,---,0.00,VWS V13.00,2013-04-05 13:12:00,
2013-04-05 09:17:00,41.3,28.9,29.87,SW,225,2.0,9.0,61,0.00,,---,0.00,VWS V13.00,2013-04-05 13:17:00,
2013-04-05 09:22:00,42.1,30.0,29.86,SW,216,9.0,9.0,62,0.00,,---,0.00,VWS V13.00,2013-04-05 13:22:00,
2013-04-05 09:27:00,42.3,29.4,29.86,SW,219,3.0,11.0,60,0.00,,---,0.00,VWS V13.00,2013-04-05 13:27:00,
2013-04-05 09:32:00,42.4,28.7,29.87,SW,225,4.0,11.0,58,0.00,,---,0.00,VWS V13.00,2013-04-05 13:32:00,
2013-04-05 09:37:00,42.5,28.8,29.87,SSW,193,4.0,8.0,58,0.00,,---,0.00,VWS V13.00,2013-04-05 13:37:00,
2013-04-05 09:42:00,43.0,28.8,29.87,SW,219,3.0,12.0,57,0.00,,---,0.00,VWS V13.00,2013-04-05 13:42:00,
2013-04-05 09:47:00,44.0,28.9,29.87,SSW,213,5.0,12.0,55,0.00,,---,0.00,VWS V13.00,2013-04-05 13:47:00,
2013-04-05 09:52:00,45.0,29.8,29.87,SW,218,1.0,12.0,55,0.00,,---,0.00,VWS V13.00,2013-04-05 13:52:00,
2013-04-05 09:57:00,45.5,28.4,29.86,SW,226,1.0,12.0,51,0.00,,---,0.00,VWS V13.00,2013-04-05 13:57:00,
2013-04-05 10:03:00,45.9,28.8,29.86,SW,228,3.0,12.0,51,0.00,,---,0.00,VWS V13.00,2013-04-05 14:03:00,
2013-04-05 10:08:00,46.5,28.4,29.86,WSW,244,4.0,4.0,49,0.00,,---,0.00,VWS V13.00,2013-04-05 14:08:00,
2013-04-05 10:13:00,47.1,26.3,29.86,SW,225,7.0,10.0,44,0.00,,---,0.00,VWS V13.00,2013-04-05 14:13:00,
2013-04-05 10:18:00,47.4,26.6,29.86,WSW,242,2.0,11.0,44,0.00,,---,0.00,VWS V13.00,2013-04-05 14:18:00,
2013-04-05 10:23:00,47.5,26.1,29.85,SW,226,6.0,11.0,43,0.00,,---,0.00,VWS V13.00,2013-04-05 14:23:00,
2013-04-05 10:28:00,47.9,25.9,29.85,SW,225,3.0,11.0,42,0.00,,---,0.00,VWS V13.00,2013-04-05 14:28:00,
2013-04-05 10:33:00,48.3,26.9,29.85,WSW,246,1.0,11.0,43,0.00,,---,0.00,VWS V13.00,2013-04-05 14:33:00,
2013-04-05 10:38:00,48.8,26.2,29.85,SW,235,3.0,6.0,41,0.00,,---,0.00,VWS V13.00,2013-04-05 14:38:00,
2013-04-05 10:43:00,48.8,26.2,29.85,West,272,3.0,9.0,41,0.00,,---,0.00,VWS V13.00,2013-04-05 14:43:00,
2013-04-05 10:48:00,48.9,26.2,29.84,WNW,302,4.0,9.0,41,0.00,,---,0.00,VWS V13.00,2013-04-05 14:48:00,
2013-04-05 10:53:00,49.1,26.4,29.84,SW,235,6.0,10.0,41,0.00,,---,0.00,VWS V13.00,2013-04-05 14:53:00,
2013-04-05 10:58:00,49.0,26.3,29.84,SW,222,2.0,10.0,41,0.00,,---,0.00,VWS V13.00,2013-04-05 14:58:00,
2013-04-05 11:03:00,49.5,26.8,29.84,SW,222,3.0,10.0,41,0.00,,---,0.00,VWS V13.00,2013-04-05 15:03:00,
2013-04-05 11:08:00,50.3,26.3,29.83,SW,218,2.0,4.0,39,0.00,,---,0.00,VWS V13.00,2013-04-05 15:08:00,
2013-04-05 11:13:00,50.7,26.0,29.83,SW,227,2.0,6.0,38,0.00,,---,0.00,VWS V13.00,2013-04-05 15:13:00,
2013-04-05 11:18:00,50.7,25.4,29.83,WNW,284,6.0,7.0,37,0.00,,---,0.00,VWS V13.00,2013-04-05 15:18:00,
2013-04-05 11:23:00,50.8,24.8,29.83,West,263,4.0,10.0,36,0.00,,---,0.00,VWS V13.00,2013-04-05 15:23:00,
2013-04-05 11:28:00,51.0,25.7,29.82,WSW,254,2.0,10.0,37,0.00,,---,0.00,VWS V13.00,2013-04-05 15:28:00,
2013-04-05 11:33:00,51.6,24.9,29.82,WNW,294,5.0,10.0,35,0.00,,---,0.00,VWS V13.00,2013-04-05 15:33:00,
2013-04-05 11:38:00,51.7,26.3,29.81,SW,226,4.0,8.0,37,0.00,,---,0.00,VWS V13.00,2013-04-05 15:38:00,
2013-04-05 11:43:00,52.2,24.7,29.81,WSW,244,2.0,9.0,34,0.00,,---,0.00,VWS V13.00,2013-04-05 15:43:00,
2013-04-05 11:48:00,52.9,23.9,29.81,WSW,254,4.0,9.0,32,0.00,,---,0.00,VWS V13.00,2013-04-05 15:48:00,
2013-04-05 11:53:00,52.9,23.9,29.81,SW,236,3.0,9.0,32,0.00,,---,0.00,VWS V13.00,2013-04-05 15:53:00,
2013-04-05 11:58:00,53.1,22.5,29.80,NW,325,1.0,9.0,30,0.00,,---,0.00,VWS V13.00,2013-04-05 15:58:00,
2013-04-05 12:03:00,53.1,24.0,29.79,NW,311,2.0,9.0,32,0.00,,---,0.00,VWS V13.00,2013-04-05 16:03:00,
2013-04-05 12:08:00,53.5,24.4,29.80,NW,305,3.0,6.0,32,0.00,,---,0.00,VWS V13.00,2013-04-05 16:08:00,
2013-04-05 12:13:00,53.8,22.3,29.79,WNW,292,4.0,6.0,29,0.00,,---,0.00,VWS V13.00,2013-04-05 16:13:00,
2013-04-05 12:18:00,53.7,26.0,29.79,West,271,5.0,6.0,34,0.00,,---,0.00,VWS V13.00,2013-04-05 16:18:00,
2013-04-05 12:23:00,54.1,24.2,29.78,SSW,207,5.0,8.0,31,0.00,,---,0.00,VWS V13.00,2013-04-05 16:23:00,
2013-04-05 12:28:00,54.6,23.8,29.78,WSW,237,5.0,8.0,30,0.00,,---,0.00,VWS V13.00,2013-04-05 16:28:00,
2013-04-05 12:33:00,55.4,24.5,29.77,West,278,1.0,8.0,30,0.00,,---,0.00,VWS V13.00,2013-04-05 16:33:00,
2013-04-05 12:38:00,55.9,24.9,29.77,West,280,2.0,6.0,30,0.00,,---,0.00,VWS V13.00,2013-04-05 16:38:00,
2013-04-05 12:43:00,56.0,23.4,29.76,West,267,4.0,9.0,28,0.00,,---,0.00,VWS V13.00,2013-04-05 16:43:00,
2013-04-05 12:48:00,56.0,23.4,29.76,NW,304,4.0,9.0,28,0.00,,---,0.00,VWS V13.00,2013-04-05 16:48:00,
2013-04-05 12:53:00,56.2,21.8,29.76,WSW,242,3.0,11.0,26,0.00,,---,0.00,VWS V13.00,2013-04-05 16:53:00,
2013-04-05 12:58:00,55.6,23.9,29.75,WSW,254,4.0,11.0,29,0.00,,---,0.00,VWS V13.00,2013-04-05 16:58:00,
2013-04-05 13:03:00,55.7,23.1,29.75,WSW,252,0.0,11.0,28,0.00,,---,0.00,VWS V13.00,2013-04-05 17:03:00,
2013-04-05 13:08:00,56.2,22.7,29.75,West,265,3.0,7.0,27,0.00,,---,0.00,VWS V13.00,2013-04-05 17:08:00,
2013-04-05 13:13:00,55.9,24.1,29.74,West,267,10.0,12.0,29,0.00,,---,0.00,VWS V13.00,2013-04-05 17:13:00,
2013-04-05 13:18:00,56.2,24.4,29.74,West,265,2.0,12.0,29,0.00,,---,0.00,VWS V13.00,2013-04-05 17:18:00,
2013-04-05 13:23:00,56.9,25.8,29.73,SW,225,7.0,12.0,30,0.00,,---,0.00,VWS V13.00,2013-04-05 17:23:00,
2013-04-05 13:28:00,56.9,25.0,29.73,WSW,240,5.0,13.0,29,0.00,,---,0.00,VWS V13.00,2013-04-05 17:28:00,
2013-04-05 13:33:00,56.4,25.4,29.73,West,269,5.0,13.0,30,0.00,,---,0.00,VWS V13.00,2013-04-05 17:33:00,
2013-04-05 13:38:00,56.7,27.2,29.72,WSW,252,5.0,6.0,32,0.00,,---,0.00,VWS V13.00,2013-04-05 17:38:00,
2013-04-05 13:43:00,57.2,26.9,29.72,SW,232,10.0,12.0,31,0.00,,---,0.00,VWS V13.00,2013-04-05 17:43:00,
2013-04-05 13:48:00,56.9,26.6,29.72,WNW,286,5.0,12.0,31,0.00,,---,0.00,VWS V13.00,2013-04-05 17:48:00,
2013-04-05 13:53:00,57.1,27.5,29.71,NNW,333,4.0,12.0,32,0.00,,---,0.00,VWS V13.00,2013-04-05 17:53:00,
2013-04-05 13:58:00,57.5,27.1,29.72,NNW,340,3.0,12.0,31,0.00,,---,0.00,VWS V13.00,2013-04-05 17:58:00,
2013-04-05 14:03:00,56.6,27.1,29.72,West,277,4.0,13.0,32,0.00,,---,0.00,VWS V13.00,2013-04-05 18:03:00,
2013-04-05 14:08:00,57.3,28.5,29.72,WSW,244,5.0,10.0,33,0.00,,---,0.00,VWS V13.00,2013-04-05 18:08:00,
2013-04-05 14:13:00,56.6,27.9,29.72,NW,315,5.0,15.0,33,0.00,,---,0.00,VWS V13.00,2013-04-05 18:13:00,
2013-04-05 14:18:00,56.2,27.5,29.72,WNW,302,11.0,17.0,33,0.00,,---,0.00,VWS V13.00,2013-04-05 18:18:00,
2013-04-05 14:23:00,55.0,26.5,29.72,West,277,4.0,17.0,33,0.00,,---,0.00,VWS V13.00,2013-04-05 18:23:00,
2013-04-05 14:28:00,55.6,29.8,29.71,NNW,339,3.0,17.0,37,0.00,,---,0.00,VWS V13.00,2013-04-05 18:28:00,
2013-04-05 14:33:00,57.3,27.7,29.70,West,268,4.0,17.0,32,0.00,,---,0.00,VWS V13.00,2013-04-05 18:33:00,
2013-04-05 14:38:00,57.7,27.3,29.70,WNW,284,2.0,9.0,31,0.00,,---,0.00,VWS V13.00,2013-04-05 18:38:00,
2013-04-05 14:43:00,57.6,28.0,29.69,WNW,292,4.0,9.0,32,0.00,,---,0.00,VWS V13.00,2013-04-05 18:43:00,
2013-04-05 14:48:00,57.8,28.2,29.70,WNW,288,8.0,12.0,32,0.00,,---,0.00,VWS V13.00,2013-04-05 18:48:00,
2013-04-05 14:53:00,57.1,26.8,29.70,West,272,6.0,14.0,31,0.00,,---,0.00,VWS V13.00,2013-04-05 18:53:00,
2013-04-05 14:58:00,56.8,27.3,29.69,WSW,242,3.0,14.0,32,0.00,,---,0.00,VWS V13.00,2013-04-05 18:58:00,
2013-04-05 15:03:00,56.9,27.4,29.69,SW,231,7.0,14.0,32,0.00,,---,0.00,VWS V13.00,2013-04-05 19:03:00,
2013-04-05 15:08:00,56.8,28.0,29.68,WSW,238,5.0,13.0,33,0.00,,---,0.00,VWS V13.00,2013-04-05 19:08:00,
2013-04-05 15:13:00,56.8,26.5,29.68,WNW,283,11.0,15.0,31,0.00,,---,0.00,VWS V13.00,2013-04-05 19:13:00,
2013-04-05 15:18:00,56.5,27.0,29.68,WSW,248,5.0,15.0,32,0.00,,---,0.00,VWS V13.00,2013-04-05 19:18:00,
2013-04-05 15:23:00,56.2,27.5,29.69,NNW,346,9.0,17.0,33,0.00,,---,0.00,VWS V13.00,2013-04-05 19:23:00,
2013-04-05 15:28:00,56.0,27.3,29.69,WNW,292,1.0,17.0,33,0.00,,---,0.00,VWS V13.00,2013-04-05 19:28:00,
2013-04-05 15:33:00,55.9,28.7,29.69,WNW,301,7.0,17.0,35,0.00,,---,0.00,VWS V13.00,2013-04-05 19:33:00,
2013-04-05 15:38:00,55.9,28.7,29.69,NNW,336,5.0,14.0,35,0.00,,---,0.00,VWS V13.00,2013-04-05 19:38:00,
2013-04-05 15:43:00,56.0,28.8,29.69,NW,321,1.0,14.0,35,0.00,,---,0.00,VWS V13.00,2013-04-05 19:43:00,
2013-04-05 15:48:00,56.6,28.6,29.69,NNW,332,4.0,14.0,34,0.00,,---,0.00,VWS V13.00,2013-04-05 19:48:00,
2013-04-05 15:53:00,56.7,29.4,29.69,NW,310,3.0,14.0,35,0.00,,---,0.00,VWS V13.00,2013-04-05 19:53:00,
2013-04-05 15:58:00,56.3,28.3,29.69,West,276,7.0,14.0,34,0.00,,---,0.00,VWS V13.00,2013-04-05 19:58:00,
2013-04-05 16:03:00,55.6,27.7,29.69,West,279,4.0,15.0,34,0.00,,---,0.00,VWS V13.00,2013-04-05 20:03:00,
2013-04-05 16:08:00,55.2,26.6,29.69,West,261,9.0,13.0,33,0.00,,---,0.00,VWS V13.00,2013-04-05 20:08:00,
2013-04-05 16:13:00,55.0,26.5,29.69,West,277,1.0,13.0,33,0.00,,---,0.00,VWS V13.00,2013-04-05 20:13:00,
2013-04-05 16:18:00,55.6,27.0,29.69,West,279,9.0,15.0,33,0.00,,---,0.00,VWS V13.00,2013-04-05 20:18:00,
2013-04-05 16:23:00,55.2,25.9,29.69,West,275,5.0,15.0,32,0.00,,---,0.00,VWS V13.00,2013-04-05 20:23:00,
2013-04-05 16:28:00,54.8,26.3,29.69,NW,309,10.0,16.0,33,0.00,,---,0.00,VWS V13.00,2013-04-05 20:28:00,
2013-04-05 16:33:00,54.6,26.8,29.69,West,276,3.0,16.0,34,0.00,,---,0.00,VWS V13.00,2013-04-05 20:33:00,
2013-04-05 16:38:00,54.7,26.2,29.69,WNW,288,2.0,11.0,33,0.00,,---,0.00,VWS V13.00,2013-04-05 20:38:00,
2013-04-05 16:44:00,54.6,26.1,29.69,NW,313,5.0,11.0,33,0.00,,---,0.00,VWS V13.00,2013-04-05 20:44:00,
2013-04-05 16:49:00,54.6,26.1,29.69,NW,304,9.0,12.0,33,0.00,,---,0.00,VWS V13.00,2013-04-05 20:49:00,
2013-04-05 16:54:00,54.4,25.2,29.70,WNW,291,4.0,12.0,32,0.00,,---,0.00,VWS V13.00,2013-04-05 20:54:00,
2013-04-05 16:59:00,54.6,26.1,29.70,WNW,292,4.0,12.0,33,0.00,,---,0.00,VWS V13.00,2013-04-05 20:59:00,
2013-04-05 17:04:00,54.5,23.7,29.70,NW,313,4.0,12.0,30,0.00,,---,0.00,VWS V13.00,2013-04-05 21:04:00,
2013-04-05 17:09:00,54.5,24.5,29.70,West,280,6.0,11.0,31,0.00,,---,0.00,VWS V13.00,2013-04-05 21:09:00,
2013-04-05 17:15:00,54.5,24.5,29.70,WNW,300,4.0,12.0,31,0.00,,---,0.00,VWS V13.00,2013-04-05 21:15:00,
2013-04-05 17:20:00,54.3,24.3,29.70,WNW,294,4.0,14.0,31,0.00,,---,0.00,VWS V13.00,2013-04-05 21:20:00,
2013-04-05 17:25:00,54.1,24.9,29.70,NW,315,10.0,14.0,32,0.00,,---,0.00,VWS V13.00,2013-04-05 21:25:00,
2013-04-05 17:30:00,53.7,23.0,29.70,West,279,4.0,14.0,30,0.00,,---,0.00,VWS V13.00,2013-04-05 21:30:00,
2013-04-05 17:35:00,53.4,24.3,29.70,WNW,292,5.0,14.0,32,0.00,,---,0.00,VWS V13.00,2013-04-05 21:35:00,
2013-04-05 17:40:00,53.2,24.9,29.71,WNW,300,2.0,13.0,33,0.00,,---,0.00,VWS V13.00,2013-04-05 21:40:00,
2013-04-05 17:45:00,52.7,24.4,29.71,NW,323,5.0,13.0,33,0.00,,---,0.00,VWS V13.00,2013-04-05 21:45:00,
2013-04-05 17:50:00,52.2,25.4,29.72,WNW,301,5.0,13.0,35,0.00,,---,0.00,VWS V13.00,2013-04-05 21:50:00,
2013-04-05 17:55:00,51.9,25.1,29.72,NW,306,3.0,13.0,35,0.00,,---,0.00,VWS V13.00,2013-04-05 21:55:00,
2013-04-05 18:00:00,51.6,26.2,29.72,NNW,329,0.0,13.0,37,0.00,,---,0.00,VWS V13.00,2013-04-05 22:00:00,
2013-04-05 18:05:00,51.3,26.6,29.72,NW,306,3.0,13.0,38,0.00,,---,0.00,VWS V13.00,2013-04-05 22:05:00,